Regional Weather Roundup
Issued by NWS

Home | Current Version | Previous Version | Graphics & Text | Print | Product List | Glossary On
Versions: 1 2 3 4 5 6 7 8 9 10 11 12 13 14 15 16 17 18 19 20 21 22 23 24 25 26 27 28 29 30 31 32 33 34 35 36 37 38 39 40 41 42 43 44 45 46 47 48 49 50
000
ASUS45 KABQ 251901
RWRNM
NEW MEXICO REGIONAL WEATHER ROUNDUP
NATIONAL WEATHER SERVICE ALBUQUERQUE NM
1200 PM MST SAT FEB 25 2017

NOTE: "FAIR" MEANS FEW OR NO CLOUDS BELOW 12,000 FEET AGL WITH NO
       SIGNIFICANT WEATHER OR OBSTRUCTIONS TO VISION.

      THIS PRODUCT IS RELEASED AS TWO VERSIONS.  ONE VERSION NEAR
      THE TOP OF THE HOUR CONTAINING PRELIMINARY DATA FROM ALBUQUERQUE
      AND OTHER STATIONS.  A FINAL VERSION WITH ADDITIONAL DATA IS
      ISSUED ABOUT 10 MINUTES AFTER THE HOUR.

NMZ501-503-504-510>518-252000-
NORTHWEST PLATEAU/NORTHCENTRAL MOUNTAINS

CITY           SKY/WX    TMP DP  RH WIND       PRES   REMARKS
FARMINGTON     FAIR      37   3  24 W9        30.04F WCI  30
LOS ALAMOS     FAIR      34   1  25 W5        29.99F WCI  30
SANTA FE       FAIR      40   0  18 SW17G23   29.99F WCI  31
TAOS           FAIR      36   1  23 W21G26    29.96F WCI  24
ANGEL FIRE     CLOUDY    28   2  33 W24G37    29.92F WCI  13

$$
NMZ402-403-502-505>509-252000-
WESTCENTRAL MOUNTAINS/SOUTHWEST MOUNTAINS

CITY           SKY/WX    TMP DP  RH WIND       PRES   REMARKS
GALLUP         FAIR      40  11  30 SW16G23   30.03F WCI  31
GRANTS         FAIR      44   7  22 W14G22    30.03F
SILVER CITY    FAIR      52   6  15 NW12      30.06F

$$
NMZ407-409-411-412-252000-
SOUTHERN DESERTS

CITY           SKY/WX    TMP DP  RH WIND       PRES   REMARKS
DEMING         FAIR      55   9  16 W13G21    30.06F
LAS CRUCES     FAIR      56   6  13 SW13      30.07F
HOLLOMAN AFB     N/A     57   5  12 S10       30.07F
ALAMOGORDO     FAIR      57   5  12 S15G21    30.05F
T OR C         FAIR      52   9  17 S8        30.02F

$$
NMZ519>523-252000-
CENTRAL VALLEYS/CENTRAL HIGHLANDS

CITY           SKY/WX    TMP DP  RH WIND       PRES   REMARKS
ALBUQUERQUE    FAIR      41   4  21 VRB5      30.04F
DOUBLE EAGLE   MOSUNNY   41   9  26 SW9       30.04F
MORIARTY ARPT  FAIR      46   6  19 W14G21    30.01F
CLINES CORNERS FAIR      40   5  23 W22G32    29.99F WCI  30
BELEN          FAIR      44   9  23 CALM      30.04F
SOCORRO        FAIR      48   7  19 SE6       30.03F

$$
NMZ524>526-539-540-252000-
SOUTHCENTRAL MOUNTAINS

CITY           SKY/WX    TMP DP  RH WIND       PRES   REMARKS
RUIDOSO        NOT AVBL

$$
NMZ527>531-252000-
NORTHEAST HIGHLANDS/NORTHEAST PLAINS

CITY           SKY/WX    TMP DP  RH WIND       PRES   REMARKS
LAS VEGAS      FAIR      44   0  16 W31G40    29.91F
RATON          FAIR      39   6  25 S12       29.88F WCI  32
CLAYTON        FAIR      42  15  33 SW14G24   29.95F

$$
NMZ532>537-252000-
EASTCENTRAL PLAINS

CITY           SKY/WX    TMP DP  RH WIND       PRES   REMARKS
TUCUMCARI      FAIR      50  12  21 S8G24     29.98F
CANNON AFB     NOT AVBL
CLOVIS AIRPORT FAIR      45  19  36 S14G21    30.05F

$$
NMZ028-029-538-252000-
SOUTHEAST PLAINS

CITY           SKY/WX    TMP DP  RH WIND       PRES   REMARKS
ROSWELL        FAIR      48  18  30 S15       30.06
ARTESIA        FAIR      48  23  37 SE15G21   30.05F
CARLSBAD       FAIR      50  23  34 S15G23    30.05F
HOBBS          SUNNY     46  19  34 S13       30.09F


$$



USA.gov is the U.S. government's official web portal to all federal, state and local government web resources and services.